This is the latest recevied weather packets stored in our database for station/object F5ZQC-13. If no packets are shown the sender has not sent any weather packets the latest 10 day(s).
| Time | Temp. | Humidity | Pressure | Rain* | Wind** | Luminosity | Snow |
|---|---|---|---|---|---|---|---|
| 1777190567 | 16.67° C | 56% | 1018 hPa | 0 mm | - | - | - |
| 1777190276 | 16.67° C | 56% | 1017.8 hPa | 0 mm | - | - | - |
| 1777190154 | 16.67° C | 56% | 1018 hPa | 0 mm | - | - | - |
| 1777190032 | 16.67° C | 57% | 1017.9 hPa | 0 mm | - | - | - |
| 1777190013 | 16.67° C | 57% | 1017.9 hPa | 0 mm | - | - | - |
| 1777189890 | 16.67° C | 55% | 1017.9 hPa | 0 mm | - | - | - |
| 1777189524 | 16.67° C | 56% | 1017.9 hPa | 0 mm | - | - | - |
| 1777189355 | 16.67° C | 56% | 1017.9 hPa | 0 mm | - | - | - |
| 1777189232 | 16.67° C | 56% | 1017.9 hPa | 0 mm | - | - | - |
| 1777189110 | 16.67° C | 56% | 1018.1 hPa | 0 mm | - | - | - |
| 1777188866 | 16.67° C | 58% | 1017.6 hPa | 0 mm | - | - | - |
| 1777188774 | 16.67° C | 57% | 1018.2 hPa | 0 mm | - | - | - |
| 1777188581 | 16.67° C | 57% | 1018.1 hPa | 0 mm | - | - | - |
| 1777188459 | 16.67° C | 57% | 1017.7 hPa | 0 mm | - | - | - |
| 1777188337 | 16.11° C | 56% | 1017.6 hPa | 0 mm | - | - | - |
| 1777188280 | 16.67° C | 59% | 1017.8 hPa | 0 mm | - | - | - |
| 1777188155 | 16.11° C | 57% | 1018 hPa | 0 mm | - | - | - |
| 1777188035 | 16.11° C | 54% | 1017.6 hPa | 0 mm | - | - | - |
| 1777187911 | 16.11° C | 56% | 1018.1 hPa | 0 mm | - | - | - |
| 1777187789 | 16.11° C | 58% | 1018 hPa | 0 mm | - | - | - |
| 1777187668 | 16.11° C | 58% | 1017.6 hPa | 0 mm | - | - | - |
| 1777187624 | 16.11° C | 58% | 1017.7 hPa | 0 mm | - | - | - |
| 1777187379 | 16.11° C | 57% | 1017.8 hPa | 0 mm | - | - | - |
| 1777187257 | 16.11° C | 58% | 1018 hPa | 0 mm | - | - | - |
| 1777187135 | 16.11° C | 54% | 1017.8 hPa | 0 mm | - | - | - |
* Rain since midnight (hover to see other rain measurements)
** Current wind speed in m/s (hover to see current wind gust speed)